Home > Weather > Titisee-Neustadt > Past weeks

Flag for Germany Past Weather in Titisee-Neustadt, Baden-Württemberg, Germany — Yesterday and Last 2 Weeks

Now
59 °F

Drizzle. Overcast.


Feels Like: 58 °F
Forecast: 47 / 60 °F
Wind: 8 mph from Southwest

Location: Freiburg

Current Time: May 30, 2016 at 5:05:54 AM

Latest Report: May 30, 2016 at 4:00 AM


Visibility: 6 mi

Pressure: 29.71 "Hg (26.98 "Hg at 813m altitude)

Humidity: 89%

Dew Point: 56 °F

Location of Titisee-NeustadtLocation

Past Weather in Titisee-Neustadt — Graph

°F

Titisee-Neustadt Temperature Yesterday

Maximum temperature yesterday: 67 °F (at 3:00 PM)
Minimum temperature yesterday: 56 °F (at 7:00 AM)
Average temperature yesterday: 62 °F

High & Low Weather Summary for the Past Weeks

 TemperatureHumidityPressure
High80 °F (May 27, 6:00 PM)99% (May 17, 4:00 AM)30.23 "Hg (May 17, 4:00 AM)
Low40 °F (May 25, 6:00 AM)34% (May 21, 7:00 PM)29.70 "Hg (May 29, 1:00 PM)
Average58 °F74%29.98 "Hg
* Reported May 15 4:00 AM — May 30 4:00 AM, Titisee-Neustadt, Weather by CustomWeather, © 2016

Note: Actual official high and low records may vary slightly from our data, if they occured in-between our weather recording intervals... More about our weather records

Advertising

Titisee-Neustadt Weather History for the Previous 24 Hours

Scroll right to see more
 ConditionsComfort  
Time TempWeatherWind HumidityBarometerVisibility
4:00 AM
Mon, May 30
59 °FDrizzle. Overcast.8 mph89%29.71 "Hg6 mi
3:00 AM59 °FLight rain. Overcast.7 mph90%29.72 "Hg11 mi
1:00 AM60 °FLight rain. Overcast.5 mph92%29.74 "Hg6 mi
12:00 AM61 °FLight rain. Overcast.6 mph85%29.74 "Hg17 mi
10:00 PM
Sun, May 29
63 °FLight rain. Overcast.3 mph76%29.73 "Hg28 mi
9:00 PM64 °FOvercast.3 mph74%29.71 "Hg43 mi
7:00 PM65 °FDrizzle. Overcast.3 mph76%29.71 "Hg25 mi
6:00 PM65 °FLight rain. Scattered clouds.5 mph78%29.70 "Hg25 mi
4:00 PM65 °FLight rain. Passing clouds.2 mph85%29.70 "Hg1 mi
3:00 PM67 °FOvercast.2 mph70%29.70 "Hg37 mi
1:00 PM67 °FPartly sunny.1 mph66%29.70 "Hg43 mi
12:00 PM65 °FOvercast.1 mph73%29.71 "Hg40 mi
10:00 AM61 °FOvercast.2 mph89%29.73 "Hg19 mi
9:00 AM59 °FOvercast.1 mph91%29.74 "Hg14 mi
7:00 AM56 °FPartly sunny.2 mph95%29.74 "Hg10 mi
6:00 AM58 °FOvercast.2 mph92%29.72 "Hg31 mi
Weather by CustomWeather, © 2016

See weather overviewHow to use our weather pages